This is the latest recevied weather packets stored in our database for station/object K9RJT. If no packets are shown the sender has not sent any weather packets the latest 10 day(s).
| Time | Temp. | Humidity | Pressure | Rain* | Wind** | Luminosity | Snow |
|---|---|---|---|---|---|---|---|
| 1777603444 | 20.56° C | 33% | 1012 hPa | 0 mm | - | 14 W/m² | - |
| 1777603140 | 20.56° C | 33% | 1011.7 hPa | 0 mm | - | 18 W/m² | - |
| 1777602835 | 21.11° C | 34% | 1011.7 hPa | 0 mm | - | 22 W/m² | - |
| 1777602530 | 21.11° C | 34% | 1011.8 hPa | 0 mm | - | 27 W/m² | - |
| 1777602227 | 21.11° C | 34% | 1011.8 hPa | 0 mm | - | 32 W/m² | - |
| 1777601923 | 21.67° C | 33% | 1012 hPa | 0 mm | - | 39 W/m² | - |
| 1777601623 | 22.22° C | 33% | 1012.2 hPa | 0 mm | - | 44 W/m² | - |
| 1777601319 | 22.22° C | 33% | 1012 hPa | 0 mm | - | 46 W/m² | - |
| 1777601016 | 22.22° C | 32% | 1012.1 hPa | 0 mm | - | 47 W/m² | - |
| 1777600712 | 22.22° C | 33% | 1011.7 hPa | 0 mm | - | 51 W/m² | - |
| 1777600408 | 22.22° C | 33% | 1011.8 hPa | 0 mm | - | 54 W/m² | - |
| 1777600105 | 22.78° C | 32% | 1012 hPa | 0 mm | - | 58 W/m² | - |
| 1777599800 | 22.78° C | 33% | 1012 hPa | 0 mm | - | 62 W/m² | - |
| 1777599495 | 22.78° C | 33% | 1012.1 hPa | 0 mm | - | 68 W/m² | - |
| 1777599193 | 22.22° C | 33% | 1012.1 hPa | 0 mm | - | 74 W/m² | - |
| 1777598889 | 22.78° C | 33% | 1012 hPa | 0 mm | - | 80 W/m² | - |
| 1777598587 | 22.78° C | 33% | 1012.1 hPa | 0 mm | - | 90 W/m² | - |
| 1777598282 | 22.78° C | 32% | 1012.4 hPa | 0 mm | - | 99 W/m² | - |
| 1777597981 | 22.78° C | 33% | 1012.2 hPa | 0 mm | - | 113 W/m² | - |
| 1777597679 | 22.78° C | 32% | 1012 hPa | 0 mm | - | 119 W/m² | - |
| 1777597375 | 22.78° C | 31% | 1012.3 hPa | 0 mm | - | 113 W/m² | - |
| 1777597071 | 22.22° C | 32% | 1012.3 hPa | 0 mm | - | 110 W/m² | - |
| 1777596768 | 22.78° C | 31% | 1012.2 hPa | 0 mm | - | 109 W/m² | - |
| 1777596463 | 22.78° C | 31% | 1012.2 hPa | 0 mm | - | 130 W/m² | - |
| 1777596161 | 23.33° C | 31% | 1012.2 hPa | 0 mm | - | 178 W/m² | - |
* Rain latest hour (hover to see other rain measurements)
** Current wind speed in m/s (hover to see current wind gust speed)